Location: Baix
(44.7118°N, 4.7648°E)
Time: 23:37:12
(UTC+00:00)

Vanguard 1 Rocket - Pass Details

Date: 08 October 2022
Orbit: 650 x 4225 km, 34.3° (Epoch: 05 December)

Event Time Altitude Azimuth Distance (km) Brightness Sun altitude
Rises 17:21:18 0° 230° (SW) 8,435 13.4 -3.0°
Reaches altitude 10° 17:27:33 10° 226° (SW) 7,418 12.9 -4.1°
Maximum altitude 17:50:46 49° 161° (SSE) 4,051 10.5 -8.2°
Enters shadow 18:04:51 12° 94° (E) 4,820 10.4 -10.7°
